Altus, OK

7:54 PM CDT on August 29, 2016 (GMT -0500)
Altus Air Force Base

Weather History for KLTS - May, 2013

Change the Weather History Date:

Friday, May 10, 2013

  Actual Average Record
Temperature  
Mean Temperature 65 °F -  
Max Temperature 73 °F 81 °F 95 °F (2000)
Min Temperature 57 °F 56 °F 46 °F (1997)
Growing Degree Days 15 (Base 50)    
Moisture  
Dew Point 57 °F    
Average Humidity 85    
Maximum Humidity 100    
Minimum Humidity 47    
Precipitation  
Precipitation 1.71 in - - ()
Sea Level Pressure  
Sea Level Pressure 30.01 in    
Wind  
Wind Speed 13 mph (North)    
Max Wind Speed 31 mph    
Max Gust Speed 40 mph    
Visibility 8 miles    
Events Fog , Rain , Thunderstorm    
Averages and records for this station are not official NWS values.
T = Trace of Precipitation, MM = Missing Value Source: NWS Daily Summary

Daily Weather History Graph

Daily Weather History Graph

Search for Another Location

Airport or City:

Trip Planner

Search our weather history database for the weather conditions in past years. The results will help you decide how hot, cold, wet, or windy it might be!

Date:

Astronomy

May. 10, 2013 Rise Set
Actual Time 6:37 AM CDT 8:29 PM CDT
Civil Twilight 6:10 AM CDT 8:57 PM CDT
Nautical Twilight 5:37 AM CDT 9:30 PM CDT
Astronomical Twilight 5:01 AM CDT 10:06 PM CDT
Moon 7:03 AM CDT (5/10) 9:19 PM CDT (5/10)
Length of Visible Light 14h 46m
Length of Day
13h 51m
New Moon, 0% of the Moon is Illuminated
May 10
New Moon
May 17
First Quarter
May 24
Full
May 31
Last Quarter
Jun 8
New

Hourly Weather History & Observations

Time (CDT) Temp. Dew Point Humidity Pressure Visibility Wind Dir Wind Speed Gust Speed Precip Events Conditions
12:58 AM 60.6 °F 60.4 °F 99% 29.96 in 10.0 mi NNE 6.9 mph - N/A   Clear
1:38 AM 62.6 °F 60.8 °F 94% 30.02 in 10.0 mi North 6.9 mph - N/A   Mostly Cloudy
1:43 AM 62.6 °F 60.8 °F 94% 30.01 in 10.0 mi NNE 6.9 mph - N/A   Mostly Cloudy
1:47 AM 62.6 °F 60.8 °F 94% 30.00 in 10.0 mi NNE 5.8 mph - N/A Rain Light Rain
1:50 AM 62.6 °F 60.8 °F 94% 30.00 in 10.0 mi NNE 4.6 mph - N/A Rain , Thunderstorm Light Thunderstorms and Rain
1:51 AM 62.6 °F 60.8 °F 94% 30.00 in 10.0 mi NNE 3.5 mph - N/A Rain Light Rain
1:53 AM 62.6 °F 60.8 °F 94% 30.00 in 10.0 mi North 1.2 mph - N/A Rain , Thunderstorm Light Thunderstorms and Rain
1:58 AM 62.6 °F 61.5 °F 96% 29.99 in 5.0 mi SW 15.0 mph - 0.02 in Rain , Thunderstorm Heavy Thunderstorms and Rain
2:03 AM 62.6 °F 60.8 °F 94% 30.03 in 4.0 mi WSW 16.1 mph 21.9 mph N/A Rain , Thunderstorm Thunderstorms and Rain
2:06 AM 62.6 °F 60.8 °F 94% 30.02 in 3.0 mi WSW 24.2 mph 40.3 mph N/A Rain , Thunderstorm Thunderstorms and Rain
2:07 AM 60.8 °F 59.0 °F 94% 30.02 in 3.0 mi West 31.1 mph 40.3 mph N/A Rain , Thunderstorm Heavy Thunderstorms and Rain
2:12 AM 60.8 °F 59.0 °F 94% 30.05 in 0.8 mi West 23.0 mph 40.3 mph N/A Rain , Thunderstorm Heavy Thunderstorms and Rain
2:17 AM 59.0 °F 59.0 °F 100% 30.06 in 0.2 mi West 19.6 mph 36.8 mph N/A Fog , Rain , Thunderstorm Heavy Thunderstorms and Rain
2:22 AM 57.2 °F 57.2 °F 100% 30.05 in 0.5 mi West 10.4 mph 29.9 mph N/A Fog , Rain , Thunderstorm Heavy Thunderstorms and Rain
2:27 AM 57.2 °F 57.2 °F 100% 30.04 in 0.5 mi NW 10.4 mph - N/A Fog , Rain , Thunderstorm Heavy Thunderstorms and Rain
2:32 AM 57.2 °F 55.4 °F 94% 30.04 in 0.8 mi NW 15.0 mph - N/A Rain , Thunderstorm Heavy Thunderstorms and Rain
2:37 AM 57.2 °F 57.2 °F 100% 30.04 in 1.2 mi NNW 20.7 mph - N/A Rain , Thunderstorm Heavy Thunderstorms and Rain
2:42 AM 57.2 °F 57.2 °F 100% 30.04 in 1.2 mi NW 19.6 mph 25.3 mph N/A Rain , Thunderstorm Heavy Thunderstorms and Rain
2:47 AM 57.2 °F 57.2 °F 100% 30.04 in 1.2 mi NNW 20.7 mph 25.3 mph N/A Rain , Thunderstorm Heavy Thunderstorms and Rain
2:52 AM 57.2 °F 57.2 °F 100% 30.04 in 2.0 mi NNW 19.6 mph 25.3 mph N/A Rain , Thunderstorm Heavy Thunderstorms and Rain
2:57 AM 57.2 °F 57.2 °F 100% 30.04 in 3.0 mi North 12.7 mph - N/A Rain , Thunderstorm Heavy Thunderstorms and Rain
2:58 AM 58.1 °F 57.7 °F 99% 30.01 in 3.0 mi North 12.7 mph - 1.62 in Rain , Thunderstorm Heavy Thunderstorms and Rain
2:59 AM 57.2 °F 57.2 °F 100% 30.04 in 4.0 mi North 11.5 mph - N/A Rain , Thunderstorm Heavy Thunderstorms and Rain
3:04 AM 57.2 °F 57.2 °F 100% 30.03 in 6.0 mi North 10.4 mph - N/A Rain , Thunderstorm Heavy Thunderstorms and Rain
3:09 AM 57.2 °F 57.2 °F 100% 30.02 in 9.0 mi NE 13.8 mph - N/A Rain , Thunderstorm Thunderstorms and Rain
3:14 AM 57.2 °F 57.2 °F 100% 29.99 in 10.0 mi NE 17.3 mph - N/A Rain , Thunderstorm Thunderstorms and Rain
3:18 AM 57.2 °F 57.2 °F 100% 29.98 in 10.0 mi NE 17.3 mph - N/A Rain , Thunderstorm Light Rain
3:23 AM 57.2 °F 57.2 °F 100% 29.98 in 10.0 mi NE 17.3 mph - N/A Rain Light Rain
3:48 AM 57.2 °F 57.2 °F 100% 29.89 in 10.0 mi ENE 24.2 mph 36.8 mph N/A Rain Light Rain
3:53 AM 57.2 °F 57.2 °F 100% 29.90 in 10.0 mi NE 17.3 mph 36.8 mph N/A Rain Light Rain
3:58 AM 58.1 °F 57.4 °F 97% 29.88 in 10.0 mi NE 18.4 mph 28.8 mph 0.06 in Rain Light Rain
4:00 AM 59.0 °F 57.2 °F 94% 29.92 in 10.0 mi NNE 17.3 mph 28.8 mph N/A Rain Light Rain
4:02 AM 59.0 °F 57.2 °F 94% 29.93 in 10.0 mi NNW 17.3 mph 26.5 mph N/A Rain Light Rain
4:03 AM 59.0 °F 57.2 °F 94% 29.93 in 10.0 mi NW 18.4 mph 25.3 mph N/A Rain Light Rain
4:04 AM 59.0 °F 57.2 °F 94% 29.94 in 10.0 mi NW 18.4 mph 25.3 mph N/A   Scattered Clouds
4:09 AM 59.0 °F 57.2 °F 94% 29.92 in 10.0 mi North 16.1 mph - N/A   Scattered Clouds
4:10 AM 59.0 °F 57.2 °F 94% 29.92 in 10.0 mi North 17.3 mph 23.0 mph N/A   Scattered Clouds
4:11 AM 59.0 °F 57.2 °F 94% 29.92 in 10.0 mi NNE 19.6 mph 26.5 mph N/A   Scattered Clouds
4:12 AM 59.0 °F 57.2 °F 94% 29.91 in 10.0 mi NNE 19.6 mph 26.5 mph N/A   Partly Cloudy
4:18 AM 60.8 °F 55.4 °F 82% 29.90 in 10.0 mi NE 20.7 mph 32.2 mph N/A   Partly Cloudy
4:48 AM 59.0 °F 57.2 °F 94% 29.93 in 10.0 mi North 13.8 mph - N/A   Clear
4:51 AM 59.0 °F 57.2 °F 94% 29.95 in 10.0 mi NW 13.8 mph - N/A   Clear
4:58 AM 58.6 °F 56.5 °F 93% 29.93 in 10.0 mi NW 12.7 mph - 0.01 in   Clear
5:58 AM 59.0 °F 55.8 °F 89% 29.96 in 10.0 mi NNW 8.1 mph - N/A   Clear
6:58 AM 57.7 °F 55.9 °F 94% 30.02 in 10.0 mi WNW 2.3 mph - N/A   Clear
7:58 AM 60.1 °F 57.9 °F 93% 30.04 in 10.0 mi North 11.5 mph - N/A   Clear
8:13 AM 60.8 °F 57.2 °F 88% 30.07 in 10.0 mi North 18.4 mph 23.0 mph N/A   Mostly Cloudy
8:38 AM 60.8 °F 57.2 °F 88% 30.07 in 10.0 mi NNE 16.1 mph - N/A   Scattered Clouds
8:58 AM 61.0 °F 57.4 °F 88% 30.06 in 10.0 mi North 18.4 mph 23.0 mph N/A   Partly Cloudy
9:58 AM 63.9 °F 57.2 °F 79% 30.07 in 10.0 mi NNE 18.4 mph - N/A   Partly Cloudy
10:58 AM 66.4 °F 56.8 °F 71% 30.07 in 10.0 mi North 18.4 mph - N/A   Scattered Clouds
11:58 AM 67.6 °F 55.9 °F 66% 30.08 in 10.0 mi NNE 15.0 mph - N/A   Partly Cloudy
12:28 PM 69.8 °F 55.4 °F 60% 30.10 in 10.0 mi NNW 10.4 mph - N/A   Mostly Cloudy
12:33 PM 69.8 °F 55.4 °F 60% 30.10 in 10.0 mi North 11.5 mph - N/A   Scattered Clouds
12:58 PM 71.1 °F 55.2 °F 57% 30.07 in 10.0 mi North 12.7 mph - N/A   Scattered Clouds
1:58 PM 73.6 °F 53.6 °F 50% 30.05 in 10.0 mi North 12.7 mph 18.4 mph N/A   Scattered Clouds
2:03 PM 73.4 °F 53.6 °F 50% 30.07 in 10.0 mi North 12.7 mph 18.4 mph N/A   Mostly Cloudy
2:43 PM 73.4 °F 51.8 °F 47% 30.08 in 10.0 mi NNW 12.7 mph - N/A   Scattered Clouds
2:58 PM 73.2 °F 52.5 °F 48% 30.06 in 10.0 mi NW 10.4 mph - N/A   Scattered Clouds
3:58 PM 73.2 °F 52.7 °F 48% 30.04 in 10.0 mi North 15.0 mph 20.7 mph N/A   Partly Cloudy
4:58 PM 72.0 °F 51.3 °F 48% 30.03 in 10.0 mi North 11.5 mph - N/A   Partly Cloudy
5:58 PM 70.5 °F 51.3 °F 50% 30.02 in 10.0 mi North 17.3 mph - N/A   Clear
6:58 PM 68.7 °F 50.7 °F 53% 30.03 in 10.0 mi NNE 12.7 mph - N/A   Mostly Cloudy
7:47 PM 68.0 °F 53.6 °F 60% 30.06 in 10.0 mi NNE 6.9 mph - N/A   Scattered Clouds
7:58 PM 67.3 °F 54.0 °F 62% 30.04 in 10.0 mi NE 5.8 mph - N/A   Mostly Cloudy
8:55 PM 64.4 °F 53.6 °F 68% 30.06 in 10.0 mi NE 5.8 mph - N/A   Scattered Clouds
9:58 PM 60.4 °F 54.0 °F 79% 30.09 in 10.0 mi NNE 4.6 mph - N/A   Clear
10:58 PM 59.0 °F 53.1 °F 81% 30.11 in 10.0 mi NE 4.6 mph - N/A   Clear
11:58 PM 57.9 °F 52.5 °F 82% 30.12 in 10.0 mi North 3.5 mph - N/A   Clear